Location: Ferintosh
(52.7647°N, 112.9692°W)
Time: 14:35:12
(UTC+00:00)

Transit 2A Rocket - Pass Details

Date: 26 May 2024
Orbit: 583 x 910 km, 66.7° (Epoch: 22 June)

Event Time Altitude Azimuth Distance (km) Brightness Sun altitude
Rises 15:46:30 0° 310° (NW) 3,292 7.8 37.4°
Reaches altitude 10° 15:49:22 10° 325° (NW) 2,419 7.3 37.8°
Maximum altitude 15:53:48 23° 17° (NNE) 1,739 7.1 38.5°
Drops below altitude 10° 15:58:28 10° 69° (ENE) 2,553 8.5 39.1°
Sets 16:01:34 0° 83° (E) 3,520 9.2 39.6°
